Other Public Products
Issued by NWS Grand Forks, ND

Home | Current Version | Previous Version | Text Only | Print | Product List | Glossary On
Versions: 1 2 3 4 5 6 7 8 9 10 11 12 13 14 15 16 17 18 19 20 21 22 23 24 25 26 27 28 29 30 31 32 33 34 35 36 37 38 39 40 41 42 43 44 45 46 47 48 49 50
000
FPUS83 KFGF 291931
OPUFGF
PRAIRIE TO PINES WEATHER ROUNDUP
NATIONAL WEATHER SERVICE EASTERN NORTH DAKOTA/GRAND FORKS ND
200 PM CDT SUN MAY 29 2016

 **SATELLITE DATA USED TO AUGMENT SKY COVER AT AUTOMATED STATIONS**
 *****  WEATHER ACROSS EASTERN NORTH DAKOTA  *****

CITY           SKY/WX    TMP DP  RH WIND       PRES   REMARKS
GRAND FORKS    MOSUNNY   72  55  55 NW14      29.92F
GRAND FORKS AF MOSUNNY   74  52  46 N14       29.93F
GRAND CITY NWS   N/A     70 N/A N/A NW9         N/A
BUXTON           N/A     73  48  41 NW14        N/A
DEVILS LAKE    SUNNY     72  41  32 NW21G29   29.96S
FARGO          MOSUNNY   73  57  57 NW9       29.95S
WAHPETON ARPT  PTCLDY    73  48  40 NW13G21   29.97S
$$

 *****  WEATHER ACROSS CENTRAL AND WESTERN NORTH DAKOTA  *****

CITY           SKY/WX    TMP DP  RH WIND       PRES   REMARKS
JAMESTOWN      MOSUNNY   73  45  36 NW14G26   29.97F
BISMARCK       SUNNY     76  42  29 NW9       30.01F
MINOT          MOSUNNY   76  38  25 W12       29.96F
MINOT AFB      MOSUNNY   72  41  32 NW10      29.95S
GARRISON         N/A     72  39  30 W15G24    29.99F
WILLISTON      SUNNY     75  34  22 SW10G20   29.98F
DICKINSON      MOSUNNY   73  39  29 W9        29.99F
HETTINGER      MOSUNNY   74  43  32 SW7       30.03F
$$

 *****  OTHER OBSERVATIONS NORTHEAST NORTH DAKOTA  *****

CITY           SKY/WX    TMP DP  RH WIND       PRES   REMARKS
WALHALLA       FAIR      68  66  94 W6        29.92F
LANGDON        FAIR      72  54  53 NW16G24   29.94S
CAVALIER       FAIR      68  55  64 N10       29.92F
GRAFTON        FAIR      70  57  64 W8        29.94S
CANDO          FAIR      73  45  35 NW13G26   29.96F
FORT TOTTEN    NOT AVBL
ROLLA            N/A     72  39  30 W17G29    29.95S
RUGBY          FAIR      72  39  30 NW18      29.95F
 ***** THE ABOVE OBSERVATIONS ARE NON NWS ARE NOT QUALITY
        CONTROLLED AND MAY MIS-REPORT RAIN FOR SNOW...
$$

 *****  OTHER OBSERVATIONS SOUTHEAST NORTH DAKOTA *****

CITY           SKY/WX    TMP DP  RH WIND       PRES   REMARKS
COOPERSTOWN    NOT AVBL
VALLEY CITY    FAIR      73  45  35 NW17G24   29.99S
OAKES            N/A    N/A N/A N/A MISG        N/A
GWINNER        FAIR      75  46  35 NW17G24   29.99S
SHEYENNE NWR     N/A     74  49  41 NW13      29.95S
BUFFALO          N/A     72  39  29 NW14        N/A
WYNDMERE         N/A     75  48  38 NW15        N/A
 ***** THE ABOVE OBSERVATIONS ARE NON NWS ARE NOT QUALITY
       CONTROLLED AND MAY MIS-REPORT RAIN FOR SNOW...
$$

  *****  WEATHER ACROSS NORTHERN MINNESOTA  *****

CITY           SKY/WX    TMP DP  RH WIND       PRES   REMARKS
FLAG ISLAND    CLOUDY    57  54  88 W10       29.87S
WARROAD        RAIN      64  57  77 W8G16     29.89S
ROSEAU         MOSUNNY   66  57  72 W12G17    29.90S
HALLOCK        PTSUNNY   68  57  68 W13       29.92S
THF RVR FALLS  PTSUNNY   66  55  68 NW10      29.95S
HALSTAD        NOT AVBL
FOSSTON        PTSUNNY   66  55  68 W12       29.96S
BAUDETTE       CLOUDY    59  54  83 NW13      29.90R
WASKISH        CLOUDY    63  57  82 W10       29.92R
CROOKSTON      MOSUNNY   70  57  64 NW9       29.95S
$$
  *****  WEATHER ACROSS CENTRAL AND WEST MINNESOTA  *****

CITY           SKY/WX    TMP DP  RH WIND       PRES   REMARKS
BEMIDJI        PTSUNNY   65  55  70 W14G21    29.94F
PARK RAPIDS    MOSUNNY   69  53  56 W15G23    29.95S
WADENA         SUNNY     70  54  56 NW12G21   29.96S
DETROIT LAKES  PTSUNNY   68  55  64 N9        29.98S
MOORHEAD       SUNNY     68  59  73 CALM      29.96S
FERGUS FALLS   MOSUNNY   73  54  49 NW16      29.93F
ELBOW LAKE     LGT RAIN  67  61  81 NW7       29.99S
MORRIS MN      MOSUNNY   75  55  50 N17G24    29.96S
STAPLES        MOSUNNY   72  55  56 NW14      29.95S
WHEATON        SUNNY     79  46  31 W20G26    29.98S
$$
  *****  WEATHER ELSEWHERE ACROSS MINNESOTA  *****

CITY           SKY/WX    TMP DP  RH WIND       PRES   REMARKS
DULUTH         CLOUDY    65  55  70 W18G24    29.88R
INTRNTL FALLS  CLOUDY    62  54  74 W13G20    29.86R
ELY            RAIN      59  55  88 W8G18     29.85R
CLOQUET        CLOUDY    66  54  63 W15G23    29.89S
BRAINERD       CLOUDY    67  55  65 W13       29.95S
HIBBING        CLOUDY    63  54  72 NW12G21   29.88R
ALEXANDRIA     MOSUNNY   71  55  56 NW8       29.99S
SAINT CLOUD    PTSUNNY   74  57  55 NW15      29.96S
MINNEAPOLIS    PTSUNNY   75  56  51 NW14      29.96S
$$

  *****  WEATHER ACROSS SOUTH DAKOTA  *****

CITY           SKY/WX    TMP DP  RH WIND       PRES   REMARKS
SIOUX FALLS    MOSUNNY   76  55  48 NW12      30.06S
BROOKINGS      SUNNY     74  52  46 NW18      30.04S
WATERTOWN      SUNNY     76  50  40 NW14      30.03S
HURON          SUNNY     76  51  41 NW8       30.03F
SISSETON         N/A     75  46  35 N16       29.97F
ABERDEEN       SUNNY     79  44  28 NW14G23   30.01F
MITCHELL       SUNNY     77  49  37 N5        30.06S
PIERRE         SUNNY     75  52  44 VRB5      30.04F
MOBRIDGE       SUNNY     75  50  41 VRB6      30.01F
RAPID CITY     SUNNY     72  50  45 S9        30.06F
$$

  *****  SOME WEATHER IN NEARBY STATES *****

CITY           SKY/WX    TMP DP  RH WIND       PRES   REMARKS
GLASGOW MT     SUNNY     71  38  29 W12       29.97F
GREAT FALLS MT MOSUNNY   70  35  27 SW14G24   29.98F
CHEYENNE WY    PTSUNNY   69  35  28 SW7       30.16F
SCOTTSBLUFF NE MOSUNNY   78  41  26 W5        30.08F
OMAHA NE       MOSUNNY   82  58  43 W5        30.06F
DES MOINES IA  MOSUNNY   80  54  40 W6        30.06F
DAVENPORT IA   MOSUNNY   78  58  49 W20G26    30.05F
CHICAGO IL     MOSUNNY   76  60  57 SW17      30.01S
EAU CLAIRE WI  RAIN      67  60  78 W18       29.93S
LA CROSSE WI   MOSUNNY   78  57  48 W15G28    29.95S
$$

  *****  SOME NATIONAL WEATHER *****

CITY           SKY/WX    TMP DP  RH WIND       PRES   REMARKS
LA GUARDIA NY  PTSUNNY   84  56  38 SE17      30.10F
RALEIGH NC     CLOUDY    75  71  87 NE8       30.04F
ATLANTA GA     PTSUNNY   88  58  36 N14G21    30.09F
NEW ORLEANS LA PTSUNNY   87  64  46 N10       30.10F
OKLAHOMA CITY  MOSUNNY   86  58  38 SW8       30.11F
ALBUQUERQUE NM MOSUNNY   80  12   7 SW13      30.15F
SALT LAKE CITY PTSUNNY   79  40  24 N8        30.05F
LOS ANGELES CA MOSUNNY   66  53  63 W10       30.02S
BOISE ID       MOSUNNY   77  28  16 S10       29.99F
SEATTLE WA     CLOUDY    55  49  80 NE15      30.15R
$$

*** WEATHER ACROSS MANITOBA...SASKATCHEWAN AND ONTARIO ***
                ***ONTARIO***

CITY           SKY/WX    TMP DP  RH WIND       PRES   REMARKS
GERALDTON      DRZL/FOG  59  57  94 N7        29.73F VSB 1
THUNDER BAY    CLOUDY    63  59  88 VRB2      29.74F
SIOUX LOOKOUT  DRIZZLE   57  54  88 NW6       29.79S
TORONTO        CLOUDY    86  66  51 SW16      29.97
BIG TROUT LK   LGT RAIN  46  45  93 NE9G17    29.93F
PICKLE LAKE    CLOUDY    50  46  87 N6        29.79F
DRYDEN         CLOUDY    57  55  94 W9        29.81S FOG
KENORA         LGT RAIN  55  54  94 W9G17     29.86S
$$
                *** MANITOBA***

CITY           SKY/WX    TMP DP  RH WIND       PRES   REMARKS
BRANDON        PTSUNNY   66  52  59 NW10      29.92S
DAUPHIN        MOSUNNY   66  52  59 N8        29.88F
ISLAND LAKE    CLOUDY    55  50  82 VRB2      29.92F
PILOT MOUND      N/A     66  54  63 NW10G17     N/A
THE PAS        CLOUDY    50  45  81 N8        29.93F
THOMPSON       CLOUDY    48  46  93 NE8       29.97F
WINNIPEG       PTSUNNY   66  57  72 NW14      29.90S
LYNN LAKE      LGT RAIN  48  46  93 E7        29.99S FOG
CHURCHILL      CLOUDY    32  28  86 NE16      30.20S WCI  21
GILLAM         LGT RAIN  46  39  76 E8        30.05S
$$
                ***SASKATCHEWAN***

CITY           SKY/WX    TMP DP  RH WIND       PRES   REMARKS
ESTEVAN        MOSUNNY   70  41  35 SW12G22   29.95S
KINDERSLEY     MOSUNNY   66  45  45 S5        29.86F
LLOYDMINSTER   PTSUNNY   61  48  63 N3        29.87F
PRINCE ALBERT  PTSUNNY   55  50  82 E8        29.88S
REGINA         MOSUNNY   68  39  34 W17G25    29.91F
YORKTON        PTSUNNY   70  46  43 W13G20    29.88F   C1F1C2F2C3F3C4F4C5F5C6F6C7F7C8F8C9F9CaFaCbFbCcFcCdFdCe!


USA.gov is the U.S. government's official web portal to all federal, state and local government web resources and services.